Location: Unspecified
(40.7945°N, 111.1337°W)
Time: 19:00:47
(UTC-06:00)

ISS - Visible Passes

Search period start: 22 March 2019 00:00
Search period end: 01 April 2019 00:00
Orbit: 406 x 411 km, 51.6° (Epoch: 23 March)

Date Brightness Start Highest point End Pass type
(mag) Time Alt. Az. Time Alt. Az. Time Alt. Az.
22 Mar -3.4 20:18:16 10° SSW 20:21:24 44° SE 20:24:33 10° ENE visible
22 Mar -1.5 21:55:14 10° W 21:57:27 24° NW 21:57:27 24° NW visible
23 Mar -2.6 21:03:46 10° WSW 21:06:54 40° NNW 21:09:02 17° NE visible
24 Mar -3.5 20:12:30 10° WSW 20:15:46 70° NW 20:19:02 10° NE visible
24 Mar -1.3 21:50:32 10° WNW 21:52:48 17° NNW 21:53:11 17° N visible
25 Mar -1.6 20:58:50 10° WNW 21:01:29 22° NNW 21:04:10 10° NNE visible
26 Mar -2.1 20:07:15 10° W 20:10:15 32° NNW 20:13:15 10° NE visible
26 Mar -1.1 21:45:51 10° NW 21:47:35 13° N 21:48:18 13° N visible
27 Mar -1.1 20:54:07 10° NW 20:56:11 15° NNW 20:58:16 10° NNE visible
28 Mar -1.1 21:40:50 10° NNW 21:42:21 13° N 21:43:03 12° NNE visible
29 Mar -1.1 20:49:19 10° NNW 20:50:54 13° N 20:52:30 10° NNE visible
29 Mar -0.6 22:26:13 10° NNW 22:26:42 12° NNW 22:26:42 12° NNW visible
30 Mar -1.3 21:35:12 10° NNW 21:37:04 14° N 21:37:35 14° NNE visible
31 Mar -1.2 20:44:02 10° NNW 20:45:37 13° N 20:47:12 10° NNE visible
31 Mar -0.9 22:20:12 10° NW 22:21:10 16° NNW 22:21:10 16° NNW visible
